sat.trackr.live / text

‹ back to catalog

STARLINK-3501

NORAD 51748 · 2022-016AL

PAYLOAD ACTIVE UNKNOWN

§ Identity

Operator
Country
US
Launch date
2022-02-21
Launch site
AFETR
Launch vehicle
Mass (kg)
RCS (m²)

Purposes: comms

External: N2YO · Heavens-Above · Gunter

§ Orbital elements

Epoch: 2026-09-20T03:29:51.229248Z

Period
93.85 min
Inclination
53.1591°
Eccentricity
0.0001139
Mean motion
15.34388348 rev/d
Perigee alt
462.0 km
Apogee alt
463.5 km
Semi-major
6,840.9 km
B*
2.1201e-5
RAAN
141.0243°
Arg perigee
90.7259°
Mean anomaly
269.3874°
Rev number
25,326

§ Raw data

STARLINK-35011 51748U 22016AL  26263.14573182  .00000340  00000+0  21201-4 0  99922 51748  53.1591 141.0243 0001139  90.7259 269.3874 15.34388348253266

JSON: /api/v1/satellites/51748 · /tle

For live sub-satellite position, see the globe view (requires WebGL).

§ Visibility from observer

Set your observer location to see the next 7 days of passes ≥ 10°. The values pass through the URL so the page stays shareable.

No JS? Fill the form by hand. The geolocation button needs JavaScript.